GFSCGP_sfc_dewp_159.txt.gz
Dewpoint
45 41 38 36 38 35 31 30 29 31 31 37 36 34 32 32 32 33 35 36 35 35 36 37 37 39 40 40 40 41 42 43 46 53 57 59 61 62 62 63 63 62 63 62
42 41 34 34 34 36 36 34 32 32 35 39 36 33 32 33 34 35 36 36 36 34 33 32 37 39 40 41 43 45 44 44 45 48 54 57 58 59 61 62 62 63 63 63
36 34 37 37 37 36 35 33 31 31 32 37 37 33 31 32 35 34 36 37 36 32 32 34 36 38 41 43 45 45 48 46 45 49 53 56 57 59 59 60 61 61 62 63
36 35 35 35 36 35 33 34 34 34 34 32 30 22 25 25 26 28 31 32 32 31 34 35 37 39 40 42 45 46 48 51 53 52 53 55 56 56 57 57 59 60 61 61
33 33 35 35 34 34 33 34 37 37 36 34 31 29 24 25 24 26 28 29 30 35 35 36 37 37 37 41 43 44 46 46 49 50 56 56 56 58 60 60 60 60 61 61
32 39 36 33 34 35 36 37 36 34 34 29 28 25 20 20 23 25 28 31 34 34 35 36 36 35 35 38 38 40 40 40 40 43 45 47 48 48 49 49 50 50 50 49
35 36 38 38 33 37 36 33 30 28 30 24 21 23 23 25 27 27 30 32 34 35 35 34 33 32 33 34 35 34 35 34 35 36 37 39 39 39 37 40 41 41 41 39
33 31 36 39 34 33 36 32 22 16 20 20 25 24 22 27 27 32 33 33 34 34 34 33 31 29 29 30 31 31 31 31 30 32 32 32 32 30 30 30 32 32 31 32
31 31 34 37 36 34 35 33 31 27 32 26 22 27 29 33 31 31 31 32 33 34 33 31 28 26 25 26 27 28 27 28 27 28 29 28 26 25 25 25 26 26 28 26
29 30 31 35 38 37 33 34 31 33 26 23 19 18 18 30 30 30 31 32 33 32 30 28 26 23 23 23 23 25 25 26 24 25 27 25 21 22 22 22 23 23 24 25
29 28 32 34 34 32 34 33 33 32 31 21 18 17 19 19 23 29 31 32 32 31 29 26 25 23 21 21 22 22 23 25 22 22 24 21 20 19 19 19 20 21 22 22
33 28 28 30 31 33 34 32 34 31 30 32 29 25 24 26 26 30 31 32 32 31 28 25 25 25 19 19 20 20 21 24 19 19 19 19 18 18 18 18 19 21 21 22
34 32 29 26 31 33 32 32 34 34 35 30 26 23 25 24 32 32 32 31 31 29 26 24 23 23 18 15 17 16 18 23 18 18 18 17 17 17 17 18 18 19 19 20
36 30 27 22 21 25 28 29 31 33 30 29 28 26 24 29 32 32 32 32 30 27 25 22 21 21 21 14 15 15 16 20 16 16 16 18 17 16 17 17 18 19 18 19
35 33 28 27 26 23 21 26 28 30 31 30 28 31 29 29 29 33 33 33 30 27 25 22 21 21 21 15 14 14 15 15 14 15 15 15 17 16 17 17 18 18 18 18
35 32 31 30 29 28 26 25 25 27 29 31 30 28 27 28 29 30 35 34 30 27 26 23 22 22 19 14 12 13 13 14 15 15 15 15 16 16 17 17 17 17 17 17
33 34 32 28 30 30 27 28 25 25 28 26 25 27 28 27 27 27 32 35 32 29 27 25 25 22 16 12 11 12 13 15 16 15 14 15 16 15 16 15 16 16 16 16
32 32 32 27 28 21 26 27 28 26 25 27 28 28 27 27 29 32 33 36 34 30 28 28 27 20 14 13 12 13 13 14 14 13 13 14 14 14 14 14 14 15 16 16
36 35 30 26 25 23 25 25 27 28 27 27 26 27 28 29 31 32 34 36 35 32 30 30 23 18 16 16 16 14 14 13 13 12 11 12 13 14 13 14 14 15 16 16
33 33 31 30 25 22 21 26 28 27 26 28 28 28 27 28 29 30 34 37 36 35 29 23 20 19 18 18 20 20 19 16 10 10 10 10 12 13 13 13 14 15 16 14
28 29 27 27 24 26 27 27 28 25 22 27 27 27 28 28 30 32 34 33 32 26 23 21 17 14 15 16 18 19 15 10 9 9 9 10 11 12 12 13 14 15 15 15
26 26 25 27 24 21 30 30 24 26 30 28 29 30 30 31 29 31 28 25 21 18 17 15 14 13 14 16 17 15 9 7 8 8 9 10 12 11 12 14 14 14 15 16
21 24 24 26 25 33 33 32 33 27 25 26 27 32 33 30 25 25 23 21 19 17 13 11 12 12 14 17 18 13 6 7 7 8 9 10 10 11 11 12 11 12 13 12
25 23 25 24 26 28 29 30 29 24 23 23 21 23 30 26 23 22 20 17 15 15 14 14 12 11 10 9 9 7 5 5 5 7 7 8 9 8 8 7 7 10 9 10
25 26 27 27 26 25 26 26 28 25 20 17 17 22 24 23 20 19 16 15 13 11 10 11 10 9 7 6 4 3 3 3 5 6 5 6 5 6 5 4 5 5 7 8
29 28 26 24 25 25 24 18 19 20 17 16 16 16 17 19 18 16 13 11 11 10 11 11 10 8 6 4 0 -1 -1 0 3 3 3 0 1 1 -0 -0 0 0 1 5

GFSCGP_sfc_dewp_162.txt.gz
Dewpoint
48 44 40 41 41 39 34 32 30 30 32 37 36 36 36 35 34 37 37 36 35 36 36 36 39 40 41 42 43 44 45 45 45 48 56 58 59 61 62 63 62 62 63 63
41 39 38 38 38 38 37 35 33 32 33 37 35 35 36 35 33 32 32 33 34 36 36 36 38 40 42 43 45 45 46 48 46 46 50 57 59 60 61 62 63 63 63 63
36 36 38 34 33 32 34 34 34 33 32 37 37 35 36 36 36 35 35 36 36 37 37 35 38 40 42 43 45 45 48 49 52 51 49 54 57 58 59 61 61 62 63 63
36 36 37 38 36 34 32 35 34 33 33 30 31 26 26 28 28 32 34 35 36 36 35 37 38 38 40 41 44 45 47 45 47 48 55 54 56 56 57 59 60 61 62 62
34 34 34 34 34 37 35 36 34 34 34 34 33 29 27 28 27 27 28 31 33 36 36 37 37 37 38 40 41 41 42 41 41 44 47 50 53 53 52 53 53 53 50 47
35 39 36 34 35 35 36 37 37 36 35 30 30 29 24 22 24 25 28 33 34 35 36 36 36 36 36 37 37 37 37 37 37 37 40 41 41 42 45 44 46 45 42 41
33 34 37 37 34 36 36 36 30 25 25 22 24 28 25 25 27 28 27 33 34 36 36 35 34 32 33 33 33 33 33 32 33 33 32 33 33 32 32 35 35 34 34 34
31 28 32 39 34 32 33 34 25 19 22 21 24 22 22 28 27 29 34 34 35 35 35 34 31 30 30 31 31 30 30 29 30 30 28 27 27 27 27 28 30 30 30 31
30 31 35 36 37 33 34 33 31 28 25 25 24 25 28 32 31 32 32 33 34 34 33 31 29 26 26 27 27 28 28 26 28 29 25 23 23 24 24 24 25 27 27 25
31 29 33 36 38 38 36 35 31 31 24 16 20 19 19 29 31 31 31 32 33 34 32 30 27 25 24 24 25 25 27 23 25 27 23 22 22 22 22 23 23 24 24 25
31 30 31 36 35 33 34 33 34 32 31 23 18 17 20 21 28 31 31 32 33 33 31 28 25 23 22 23 23 23 25 22 22 24 21 21 21 21 21 21 22 23 24 24
34 30 29 32 35 35 34 32 32 29 27 29 25 21 25 25 26 30 30 32 33 33 31 27 25 21 21 22 21 22 24 21 20 20 20 20 20 20 20 20 20 22 21 23
34 32 26 27 31 33 33 33 32 32 32 27 25 23 26 27 27 32 32 32 32 32 30 26 25 24 18 18 19 18 22 20 19 20 20 19 19 18 19 19 20 20 21 21
36 31 27 21 20 31 30 30 32 33 30 28 27 27 26 27 29 32 33 33 32 31 29 25 24 24 17 16 16 16 19 18 18 18 19 20 19 18 18 19 19 20 20 20
36 32 31 28 27 26 26 28 29 29 30 28 26 28 29 29 29 33 34 34 32 30 28 25 24 23 18 16 15 15 18 16 16 16 17 18 20 18 19 20 20 20 20 19
35 30 31 27 29 28 27 26 26 28 28 28 29 28 29 29 30 31 32 34 32 30 28 25 23 23 21 16 15 14 15 16 17 17 17 17 18 19 19 19 19 19 19 19
33 32 30 25 28 29 27 27 27 26 25 27 26 27 29 30 29 29 28 32 33 31 29 26 24 22 22 16 14 14 15 18 18 18 17 17 18 17 18 18 18 18 18 18
31 31 30 25 21 20 24 24 27 27 27 26 25 26 27 27 26 28 30 31 35 33 31 28 25 22 21 15 14 15 16 17 17 16 15 16 16 16 16 16 16 17 18 17
35 32 29 26 22 22 22 24 23 24 24 27 27 26 25 26 28 28 29 30 33 36 34 30 27 24 16 14 15 15 16 16 16 14 13 14 15 16 15 15 16 16 17 17
35 36 31 28 22 17 21 23 25 27 24 26 26 27 28 28 25 25 27 30 32 36 32 28 20 16 15 16 16 16 16 16 14 13 13 13 14 16 15 14 16 17 17 15
27 28 25 25 24 26 27 26 26 24 23 26 26 28 28 27 28 29 33 33 31 29 23 20 19 18 19 20 20 20 20 18 17 16 16 15 13 15 15 15 16 17 16 16
23 21 19 23 20 18 26 29 24 24 27 27 26 28 29 30 30 30 28 25 24 22 21 19 17 16 17 20 21 19 18 17 16 16 15 15 14 12 14 11 14 14 14 13
18 24 21 22 21 27 28 27 28 29 28 27 26 26 29 28 27 27 24 20 18 18 16 16 15 15 16 19 19 18 15 15 14 14 13 12 13 13 14 10 12 11 10 10
19 20 19 20 22 23 24 28 30 30 29 27 23 23 23 26 26 24 22 20 18 17 15 14 14 15 15 18 18 15 14 13 11 10 10 10 10 11 11 11 11 10 7 7
23 24 22 22 24 27 26 25 23 25 25 21 18 19 22 26 24 23 21 18 16 14 14 15 14 13 12 12 11 11 10 8 9 9 9 9 8 8 8 8 8 9 8 9
23 22 21 20 23 24 23 20 19 18 20 19 18 17 18 20 22 20 18 17 15 14 14 14 13 11 10 8 5 5 5 7 8 6 7 5 5 5 4 5 5 4 4 4

GFSCGP_sfc_dewp_165.txt.gz
Dewpoint
49 44 40 41 42 39 36 33 32 32 34 35 35 36 37 37 36 35 37 37 38 37 37 37 40 41 42 44 45 45 46 47 48 47 48 56 58 60 62 63 63 62 62 63
44 39 42 42 43 41 39 37 35 34 34 35 34 34 36 36 36 35 33 34 36 34 35 38 40 42 43 43 45 45 47 48 52 51 49 53 57 59 61 63 63 63 63 63
37 37 41 38 36 37 36 36 35 34 34 34 35 32 35 36 36 36 35 34 34 34 36 37 39 40 41 42 43 45 45 45 46 48 54 53 56 58 59 61 62 62 63 63
40 39 38 36 34 33 31 34 35 35 32 29 34 24 27 28 29 33 36 36 35 36 37 38 38 38 39 40 41 42 42 41 41 45 49 54 55 55 58 59 54 50 50 51
35 36 36 36 34 34 32 35 35 34 33 32 32 30 29 29 27 27 31 34 35 36 37 37 37 38 38 38 38 38 38 37 37 41 43 48 51 51 51 52 48 47 45 43
35 37 35 33 36 36 38 37 36 36 36 31 30 30 27 27 26 24 27 31 35 36 36 36 36 36 35 35 35 34 33 34 34 32 34 36 37 41 41 40 41 40 39 38
33 34 36 36 34 36 36 33 25 28 28 23 28 30 27 27 26 27 26 33 35 36 35 34 33 33 32 32 32 31 30 30 30 28 27 28 29 29 31 32 33 32 33 32
29 28 34 37 35 33 34 32 27 20 22 22 25 25 26 29 28 29 30 34 35 35 35 33 32 31 31 30 30 29 27 28 29 25 24 25 26 26 26 27 28 28 29 30
30 28 33 36 36 34 33 33 33 28 24 24 25 25 26 30 30 32 33 34 34 35 34 31 30 29 28 27 27 28 25 27 27 24 23 22 23 24 24 25 26 26 27 27
32 26 33 36 36 36 34 34 30 30 23 14 19 22 21 27 30 31 32 33 34 34 32 30 27 26 25 26 26 27 23 25 25 23 22 22 22 22 23 24 24 25 26 27
34 31 31 37 35 32 34 33 33 31 28 21 18 18 22 21 23 31 31 32 33 34 32 29 26 24 24 24 24 26 22 22 23 21 21 22 22 21 22 22 23 24 24 25
36 30 29 33 36 36 33 32 33 30 24 27 25 22 24 25 27 32 32 32 33 33 31 28 24 22 22 22 23 24 22 21 21 21 20 21 20 21 20 21 21 23 23 24
35 32 26 27 32 34 35 34 34 34 32 28 27 24 26 26 27 29 30 32 33 32 30 27 23 21 21 21 21 23 21 19 21 20 19 19 19 19 19 20 21 21 22 22
37 32 27 21 21 31 30 31 34 33 29 28 29 27 27 28 28 31 32 33 33 32 30 26 25 21 19 19 19 20 21 18 20 20 20 20 19 19 19 20 21 21 21 21
36 30 29 28 27 28 28 29 30 32 31 28 27 28 30 30 30 31 33 34 33 32 30 27 26 25 20 18 17 18 20 18 18 18 19 19 20 19 20 20 20 21 21 21
38 27 31 27 30 29 28 29 30 29 29 29 28 27 29 30 30 31 32 32 34 32 31 29 27 25 22 16 16 16 17 17 18 17 18 18 19 19 20 20 20 20 20 21
34 32 30 25 28 29 27 29 28 28 29 29 27 28 29 28 28 29 30 31 33 33 32 30 28 25 24 16 16 16 16 18 18 18 18 19 19 18 19 19 19 18 18 19
33 32 30 27 22 19 23 25 29 27 26 27 27 27 26 26 26 29 29 30 30 32 34 32 30 27 25 18 16 16 17 18 18 17 17 18 18 17 17 17 17 18 18 18
34 31 27 25 23 22 22 23 24 24 24 27 27 27 26 27 27 26 27 28 29 30 34 34 32 28 24 18 16 16 17 18 17 16 16 16 16 17 16 17 17 17 17 18
34 35 30 20 22 17 20 22 25 25 22 25 24 26 28 28 26 26 28 29 29 31 34 35 28 20 18 17 17 17 17 17 15 15 15 16 16 18 17 16 17 17 18 17
28 29 28 28 24 22 25 25 26 21 19 25 25 25 26 27 27 29 31 32 30 29 27 23 20 19 18 17 17 17 16 16 16 16 16 17 17 18 17 18 18 17 18 17
23 23 24 24 23 21 28 26 23 23 26 27 27 26 26 27 28 28 29 27 25 23 21 19 18 17 17 17 17 17 16 18 18 17 17 17 18 18 17 18 18 17 17 16
18 22 18 21 21 23 24 25 26 28 27 27 26 27 27 27 27 28 27 24 23 20 18 18 18 18 20 20 20 19 18 17 17 16 16 16 17 17 16 16 16 15 16 14
18 21 22 20 22 22 23 25 28 28 29 29 27 25 25 23 23 25 25 21 19 17 17 16 17 17 18 19 20 17 16 16 15 14 14 14 14 13 15 14 13 12 11 11
20 21 19 19 20 21 23 25 23 21 21 24 22 19 20 21 23 23 24 21 19 17 16 16 16 16 16 16 14 15 14 14 13 13 12 12 11 12 11 10 11 9 9 9
23 20 20 18 19 23 23 22 20 20 20 17 18 19 18 18 19 21 21 19 16 15 15 14 14 14 12 11 9 10 11 12 12 11 11 10 9 9 7 7 9 11 10 11

GFSCGP_sfc_dewp_168.txt.gz
Dewpoint
49 44 40 42 42 40 37 37 36 34 34 34 33 34 37 39 38 36 36 37 37 38 39 38 40 41 43 44 45 46 48 49 51 50 47 48 55 59 61 61 62 62 63 63
45 40 41 43 43 41 39 36 35 35 35 35 33 33 36 37 37 36 36 35 36 37 37 39 41 42 42 43 44 46 45 45 47 49 50 51 53 57 59 62 62 62 63 62
37 37 41 42 41 41 39 37 35 34 35 34 34 30 33 35 37 36 36 36 36 35 36 38 40 40 41 42 42 43 42 42 43 45 49 55 53 56 58 60 59 55 56 56
40 40 40 40 38 40 37 37 37 36 33 30 32 22 26 28 28 32 35 36 36 35 35 37 39 39 40 40 40 40 39 38 38 41 47 51 53 54 56 53 50 47 48 49
34 38 37 37 37 34 33 34 33 33 33 31 31 30 27 29 28 28 28 28 36 36 37 38 37 38 38 38 37 37 36 35 34 34 39 47 49 50 52 47 45 43 40 41
34 37 37 34 37 35 36 37 36 36 34 30 30 30 26 25 27 26 27 28 31 36 37 37 37 37 35 35 34 33 32 32 30 29 30 34 38 41 41 42 41 40 39 39
34 35 36 34 35 37 38 34 27 29 27 24 27 30 26 29 29 27 27 27 32 36 35 35 34 34 33 32 32 31 30 29 27 26 26 29 29 31 33 34 34 34 33 34
30 29 34 36 33 33 35 34 27 20 22 22 26 26 25 30 30 30 29 30 35 35 35 34 33 33 31 31 30 28 29 28 25 24 24 25 26 27 28 29 30 30 31 32
29 28 33 36 36 33 33 33 31 27 21 22 24 24 25 27 28 30 29 34 35 35 35 33 32 31 30 29 29 27 28 27 23 22 23 23 24 25 25 26 27 28 29 28
32 25 32 33 35 35 33 34 31 30 21 13 20 21 21 25 28 30 32 33 34 35 34 32 30 29 28 27 28 26 26 26 23 22 22 22 22 23 24 24 25 25 26 27
35 30 31 35 33 31 34 32 32 30 28 20 17 17 22 21 24 28 31 33 34 34 34 31 28 27 27 26 27 25 24 25 22 22 22 22 22 22 23 23 24 24 25 26
35 35 30 32 36 34 32 31 31 27 20 25 25 21 24 24 27 28 29 31 33 35 34 30 27 25 24 25 25 26 22 24 22 21 21 21 21 21 21 21 22 24 24 25
35 34 27 27 33 34 34 31 32 31 31 27 25 22 26 25 26 29 29 29 32 34 32 30 26 24 23 22 23 24 21 22 22 20 20 20 20 20 20 20 21 22 23 23
37 33 29 22 22 32 32 33 33 33 30 28 29 27 27 27 27 29 32 32 32 33 32 30 28 24 22 21 21 23 21 20 21 20 19 19 19 19 20 20 21 22 22 23
37 32 30 30 26 29 29 30 33 33 32 28 26 28 29 29 31 32 32 32 33 33 33 31 29 26 22 21 21 21 22 19 20 19 19 19 20 20 20 21 21 21 21 22
38 31 31 29 30 28 28 28 30 31 31 30 29 28 29 30 31 31 31 32 33 33 33 33 31 28 25 21 21 19 21 19 19 19 19 19 19 20 20 20 20 21 21 22
35 34 31 27 29 31 28 31 29 28 29 29 27 28 29 29 29 29 29 31 31 31 33 33 32 30 28 25 21 19 20 19 18 18 19 19 19 19 20 20 19 20 20 21
34 34 33 28 29 20 26 27 30 29 28 29 29 29 28 28 28 28 28 29 29 32 32 33 34 32 30 28 21 19 19 18 18 18 18 19 19 18 19 19 18 19 19 19
34 33 31 27 23 25 24 24 24 26 25 28 28 28 29 29 29 27 28 29 30 31 31 32 34 35 32 26 20 18 18 18 18 17 18 18 18 17 18 18 18 18 19 19
34 34 31 25 23 19 23 23 25 24 22 24 25 26 26 26 25 25 27 30 29 30 30 31 33 31 27 23 19 19 19 18 17 17 17 18 17 18 18 18 18 19 20 20
27 30 28 26 24 23 25 24 25 19 18 24 24 24 24 24 25 27 29 29 30 29 27 26 26 26 25 20 19 19 18 18 17 17 17 17 17 18 18 19 19 20 20 20
24 27 26 27 25 21 28 25 22 23 26 26 26 27 25 26 26 27 27 28 28 27 24 21 20 18 17 19 19 19 18 18 17 17 17 17 17 18 18 18 18 20 20 19
18 24 20 24 23 25 25 26 26 27 26 27 26 27 27 27 27 27 26 26 26 25 22 19 18 18 17 19 19 18 18 17 16 16 16 16 18 19 19 17 18 18 18 17
18 24 23 20 22 23 24 24 26 27 27 26 28 27 26 27 27 24 24 25 24 21 19 17 17 17 17 17 20 18 17 17 16 15 16 17 17 17 17 18 18 17 16 15
18 19 18 18 15 18 19 21 22 23 24 22 23 22 21 21 21 22 23 23 22 20 17 16 16 17 17 16 15 14 15 16 16 16 15 15 15 15 15 16 15 15 14 14
22 20 18 16 18 19 19 21 22 21 22 20 17 17 19 18 18 18 18 19 20 16 15 14 14 14 12 12 11 12 15 17 15 13 13 13 13 13 13 12 13 15 14 15

GFSCGP_sfc_dewp_171.txt.gz
Dewpoint
49 42 39 41 43 38 36 36 34 35 35 33 33 34 34 36 39 37 37 37 37 37 39 39 40 42 43 44 44 46 47 47 50 50 49 48 49 54 58 60 61 61 62 63
46 39 40 42 43 42 37 34 34 35 35 34 34 33 34 35 37 38 38 38 37 37 38 38 40 42 42 43 45 45 44 44 46 48 50 51 51 52 56 59 60 60 61 61
38 37 41 41 41 40 38 36 34 33 35 35 32 28 32 34 35 37 38 38 37 37 37 37 39 41 42 42 43 42 41 42 42 43 48 51 53 53 55 59 55 53 55 57
40 40 39 40 39 40 36 40 37 36 34 30 30 18 18 27 31 33 36 36 36 36 36 37 39 40 40 41 41 39 38 37 37 39 46 50 52 52 54 53 50 47 49 49
33 37 38 38 38 41 36 37 37 35 33 30 29 28 23 28 27 28 28 29 30 34 37 36 38 39 40 39 38 37 35 33 32 33 38 47 48 52 50 46 44 41 41 43
34 36 38 37 38 36 35 35 35 34 32 26 28 27 23 23 25 26 29 29 30 30 36 37 38 38 37 36 34 34 33 31 29 29 32 37 44 45 46 44 42 39 39 39
35 36 35 34 35 37 36 32 25 26 25 22 26 28 22 26 28 28 27 27 28 33 37 37 37 36 34 33 32 32 31 29 27 27 28 30 32 36 38 38 38 36 36 36
29 24 35 35 33 33 35 32 27 22 24 22 27 26 26 30 31 31 31 30 32 35 36 36 35 34 33 32 31 29 30 28 25 25 25 26 27 29 30 32 33 34 34 34
29 28 33 36 35 34 35 34 31 26 19 21 23 24 25 27 26 26 30 30 32 34 35 35 34 33 32 31 30 28 29 27 24 23 23 24 25 26 26 27 28 30 31 29
32 25 31 33 36 35 34 35 31 31 23 12 19 21 21 22 24 26 29 31 32 35 35 34 33 32 31 30 30 27 28 27 23 22 22 22 23 24 25 25 26 27 28 28
35 32 31 34 33 32 33 31 32 31 28 20 16 17 22 22 22 25 27 30 32 34 35 34 32 31 30 29 28 27 25 26 23 22 22 23 23 23 23 24 24 25 27 27
35 36 30 31 34 34 33 31 31 29 22 26 25 24 23 22 23 24 27 28 30 33 35 34 32 30 28 27 27 27 24 26 23 22 22 22 21 22 22 22 23 25 25 26
35 34 27 25 32 34 32 32 32 32 30 27 22 22 26 26 27 27 33 33 30 32 34 34 31 28 26 25 26 26 25 24 24 21 22 21 21 20 20 21 22 23 24 25
39 34 30 23 23 33 31 32 31 32 30 27 26 24 25 28 28 28 29 30 31 32 33 33 32 30 28 25 24 24 25 22 23 21 21 20 20 20 20 21 22 22 23 25
39 32 32 31 28 29 31 31 32 31 31 28 26 28 28 30 31 32 33 33 32 32 33 33 33 32 29 26 24 23 24 22 22 20 20 19 20 20 20 21 22 22 23 24
38 33 34 31 31 30 30 29 32 33 31 31 30 29 30 30 31 31 31 33 32 32 32 32 33 33 31 28 25 23 23 22 21 19 19 19 20 20 21 21 21 21 22 23
30 31 32 28 30 30 28 30 28 28 31 31 29 30 30 29 28 28 29 31 31 31 32 32 33 33 33 31 27 24 23 23 21 20 19 19 19 19 20 20 21 21 21 22
28 31 32 27 27 21 25 29 30 30 28 28 29 29 29 28 28 29 29 30 30 30 31 32 32 33 34 33 30 26 23 22 21 20 19 19 19 19 20 19 19 20 21 21
33 33 30 27 24 27 30 29 28 30 29 30 29 29 29 29 30 28 29 29 29 29 30 31 32 33 35 34 31 24 22 21 20 19 19 19 19 19 19 18 19 19 20 20
35 34 31 23 23 16 21 26 26 25 23 23 27 28 28 28 26 25 26 29 29 30 31 31 29 29 29 31 26 22 22 21 20 19 19 19 19 19 18 18 18 19 20 20
30 31 28 29 26 25 25 24 25 17 19 25 23 24 24 24 25 26 28 27 28 29 28 28 25 24 24 23 21 21 21 20 20 20 19 19 18 19 18 19 19 19 20 19
27 28 26 28 26 22 25 24 21 23 26 26 26 26 26 25 26 26 27 27 27 26 26 25 23 22 18 20 20 21 20 20 19 19 18 18 18 18 19 20 20 21 21 20
18 27 25 27 24 25 25 26 26 26 25 26 26 25 25 25 25 26 26 26 25 25 24 22 21 21 19 19 23 24 25 19 18 18 17 18 18 19 20 20 20 20 20 18
20 23 23 20 23 22 23 25 26 27 26 25 24 25 26 26 26 26 25 23 23 23 22 20 17 19 19 18 20 18 17 17 17 17 16 16 17 19 19 19 19 19 18 17
18 21 19 21 19 16 17 19 19 20 23 24 23 22 21 20 20 20 20 20 20 20 19 17 17 17 16 16 15 14 15 15 15 15 15 17 18 18 18 18 18 18 18 18
21 18 16 14 16 16 18 21 23 22 22 19 18 18 18 17 17 17 17 17 17 17 17 16 15 14 11 10 9 10 11 13 14 14 15 15 15 15 15 15 16 20 20 22